FW3075 Weather Reports


time (UTC)temp
C
wind
direction
speed
KPH
gust
KPH
rain 1hr
cm
rain 24hr
cm
rain mn
cm
humidity
%
barometer
mb
20260906121506 19 34 0.0 1.6 0.00 0.00 0.00 92 1019.0
20260906121007 19 34 0.0 1.6 0.00 0.00 0.00 92 1018.9
20260906120011 19 34 0.0 0.0 0.00 0.00 0.00 92 1018.8
20260906115506 19 34 0.0 0.0 0.00 0.00 0.00 92 1018.6
20260906115007 19 34 0.0 0.0 0.00 0.00 0.00 92 1018.6
20260906114006 19 34 0.0 1.6 0.00 0.00 0.00 92 1018.4
20260906113506 19 34 0.0 1.6 0.00 0.00 0.00 92 1018.4
20260906113008 19 34 0.0 1.6 0.00 0.00 0.00 92 1018.4
20260906111006 20 34 0.0 1.6 0.00 0.00 0.00 91 1018.2
20260906110019 20 34 0.0 1.6 0.00 0.00 0.00 91 1018.2
20260906105505 20 34 0.0 6.4 0.00 0.00 0.00 91 1018.2
20260906104505 20 34 0.0 4.8 0.00 0.00 0.00 91 1018.0
20260906104006 20 34 0.0 1.6 0.00 0.00 0.00 91 1017.9
20260906103505 20 34 0.0 1.6 0.00 0.00 0.00 91 1017.8
20260906103006 20 34 0.0 3.2 0.00 0.00 0.00 91 1017.7
20260906102505 20 34 0.0 4.8 0.00 0.00 0.00 91 1017.6
20260906102005 20 34 0.0 4.8 0.00 0.00 0.00 91 1017.7
20260906101505 20 34 0.0 3.2 0.00 0.00 0.00 90 1017.8
20260906101005 20 34 0.0 3.2 0.00 0.00 0.00 90 1017.7
20260906100505 20 34 0.0 1.6 0.00 0.00 0.00 90 1017.7
20260906100013 20 34 0.0 3.2 0.00 0.00 0.00 90 1017.7
20260906095507 20 34 0.0 3.2 0.00 0.00 0.00 90 1017.7
20260906095006 20 34 0.0 3.2 0.00 0.00 0.00 90 1017.7
20260906093505 20 34 0.0 4.8 0.00 0.00 0.00 90 1017.5
20260906092506 20 34 0.0 1.6 0.00 0.00 0.00 89 1017.6
20260906092007 20 34 0.0 1.6 0.00 0.00 0.00 89 1017.5
20260906091506 20 34 0.0 1.6 0.00 0.00 0.00 89 1017.5
20260906091007 20 34 0.0 3.2 0.00 0.00 0.00 89 1017.5
20260906090506 20 34 0.0 3.2 0.00 0.00 0.00 89 1017.4
20260906090015 20 34 0.0 1.6 0.00 0.00 0.00 89 1017.4
20260906085505 20 34 0.0 0.0 0.00 0.00 0.00 88 1017.3
20260906085006 20 34 0.0 0.0 0.00 0.00 0.00 88 1017.4
20260906084505 20 34 0.0 0.0 0.00 0.00 0.00 88 1017.3
20260906084005 20 34 0.0 0.0 0.00 0.00 0.00 88 1017.4
20260906083505 21 34 0.0 0.0 0.00 0.00 0.00 88 1017.4
20260906083009 21 34 0.0 0.0 0.00 0.00 0.00 88 1017.4
20260906082506 21 34 0.0 0.0 0.00 0.00 0.00 88 1017.4
20260906082006 21 34 0.0 0.0 0.00 0.00 0.00 88 1017.4
20260906081506 21 34 0.0 0.0 0.00 0.00 0.00 88 1017.4
20260906080505 21 34 0.0 0.0 0.00 0.00 0.00 88 1017.6
20260906075505 21 34 0.0 0.0 0.00 0.00 0.00 88 1017.4
20260906075006 21 34 0.0 0.0 0.00 0.00 0.00 88 1017.6
20260906074505 21 34 0.0 0.0 0.00 0.00 0.00 88 1017.4
20260906074006 21 34 0.0 1.6 0.00 0.00 0.00 88 1017.5
20260906073505 21 34 0.0 1.6 0.00 0.00 0.00 88 1017.4
20260906073012 21 34 0.0 0.0 0.00 0.00 0.00 88 1017.4
20260906072505 21 34 0.0 0.0 0.00 0.00 0.00 88 1017.5
20260906072014 21 34 0.0 0.0 0.00 0.00 0.00 88 1017.6
20260906071505 21 34 0.0 0.0 0.00 0.00 0.00 88 1017.6
20260906071010 21 34 0.0 0.0 0.00 0.00 0.00 87 1017.7
20260906070505 21 34 0.0 0.0 0.00 0.00 0.00 87 1017.7
20260906070011 21 34 0.0 0.0 0.00 0.00 0.00 87 1017.6
20260906065504 21 34 0.0 0.0 0.00 0.00 0.00 87 1017.6
20260906065006 21 23 0.0 1.6 0.00 0.00 0.00 87 1017.6
20260906064505 21 23 0.0 1.6 0.00 0.00 0.00 87 1017.6
20260906064006 21 23 0.0 1.6 0.00 0.00 0.00 87 1017.6
20260906063507 21 23 0.0 0.0 0.00 0.00 0.00 87 1017.6
20260906063006 21 23 0.0 0.0 0.00 0.00 0.00 87 1017.5
20260906062505 21 23 0.0 1.6 0.00 0.00 0.00 87 1017.5
20260906061507 21 23 0.0 3.2 0.00 0.00 0.00 87 1017.5
20260906061006 21 64 0.0 3.2 0.00 0.00 0.00 87 1017.5
20260906060505 21 57 0.0 1.6 0.00 0.00 0.00 86 1017.5
20260906060011 21 51 0.0 1.6 0.00 0.00 0.00 86 1017.6
20260906055508 21 59 0.0 1.6 0.00 0.00 0.00 86 1017.5
20260906055008 22 59 0.0 3.2 0.00 0.00 0.00 86 1017.5
20260906054009 22 44 0.0 1.6 0.00 0.00 0.00 85 1017.6
20260906053509 22 44 0.0 1.6 0.00 0.00 0.00 85 1017.5
20260906052508 22 60 0.0 6.4 0.00 0.00 0.00 85 1017.5
20260906052008 22 42 0.0 3.2 0.00 0.00 0.00 85 1017.5
20260906051508 22 32 0.0 3.2 0.00 0.00 0.00 85 1017.4
20260906051008 22 30 0.0 3.2 0.00 0.00 0.00 85 1017.5
20260906050508 22 65 0.0 0.0 0.00 0.00 0.00 85 1017.4
20260906050018 22 74 0.0 1.6 0.00 0.00 0.00 85 1017.4
20260906045506 22 74 0.0 1.6 0.00 0.00 0.00 85 1017.3
20260906045007 22 74 0.0 4.8 0.00 0.00 0.00 85 1017.3
20260906044507 22 78 0.0 4.8 0.00 0.00 0.00 85 1017.3
20260906044008 22 25 0.0 3.2 0.00 0.00 0.00 85 1017.3
20260906043009 22 48 0.0 4.8 0.00 0.00 0.00 85 1016.9
20260906042507 22 43 0.0 4.8 0.00 0.00 0.00 85 1016.8
20260906042009 22 56 0.0 3.2 0.00 0.00 0.00 85 1016.7
20260906041508 22 48 0.0 3.2 0.00 0.00 0.00 85 1016.6
20260906041013 22 61 0.0 3.2 0.00 0.00 0.00 85 1016.6
20260906040012 22 64 0.0 3.2 0.00 0.00 0.00 85 1016.5
20260906035507 22 49 0.0 4.8 0.00 0.00 0.00 85 1016.5
20260906035008 22 61 0.0 6.4 0.00 0.00 0.00 85 1016.4
20260906034507 22 72 0.0 6.4 0.00 0.00 0.00 85 1016.5
20260906034007 22 55 0.0 6.4 0.00 0.00 0.00 85 1016.4
20260906033008 22 56 0.0 1.6 0.00 0.00 0.00 85 1016.4
20260906032510 22 69 0.0 4.8 0.00 0.00 0.00 84 1016.4
20260906031507 22 61 0.0 4.8 0.00 0.00 0.00 84 1016.5
20260906031009 22 37 0.0 4.8 0.00 0.00 0.00 84 1016.6
20260906030508 22 57 0.0 4.8 0.00 0.00 0.00 84 1016.5
20260906030011 22 58 0.0 3.2 0.00 0.00 0.00 84 1016.5
20260906025508 22 55 0.0 3.2 0.00 0.00 0.00 83 1016.5
20260906025009 22 69 0.0 6.4 0.00 0.00 0.00 83 1016.6
20260906024509 22 68 0.0 6.4 0.00 0.00 0.00 83 1016.6
20260906024008 22 346 0.0 4.8 0.00 0.00 0.00 83 1016.5
20260906023508 22 69 0.0 6.4 0.00 0.00 0.00 83 1016.6
20260906022508 22 26 0.0 4.8 0.00 0.00 0.00 83 1016.6
20260906022009 22 28 0.0 4.8 0.00 0.00 0.00 83 1016.5
20260906021008 22 63 0.0 6.4 0.00 0.00 0.00 84 1016.3
20260906015508 22 5 0.0 4.8 0.00 0.00 0.00 83 1016.5
20260906015008 22 28 0.0 8.0 0.00 0.00 0.00 83 1016.6
20260906014510 22 58 1.6 8.0 0.00 0.00 0.00 83 1016.6
20260906014009 22 70 1.6 6.4 0.00 0.00 0.00 83 1016.6
20260906013508 22 42 0.0 6.4 0.00 0.00 0.00 83 1016.5
20260906013008 22 44 1.6 6.4 0.00 0.00 0.00 83 1016.6
20260906012008 22 48 0.0 4.8 0.00 0.00 0.00 84 1016.6
20260906011508 22 20 0.0 8.0 0.00 0.00 0.00 84 1016.6
20260906011008 22 16 1.6 8.0 0.00 0.00 0.00 84 1016.6
20260906010011 22 65 0.0 4.8 0.00 0.00 0.00 83 1016.5
20260906005508 22 36 1.6 14.5 0.00 0.00 0.00 83 1016.3
20260906005008 22 19 1.6 14.5 0.00 0.00 0.00 83 1016.3
20260906004511 22 69 1.6 8.0 0.00 0.00 0.00 83 1016.3
20260906004009 22 25 1.6 8.0 0.00 0.00 0.00 83 1016.1
20260906003508 22 44 1.6 8.0 0.00 0.00 0.00 83 1016.0
20260906003009 22 250 3.2 9.7 0.00 0.00 0.00 82 1016.0
20260906002508 22 25 3.2 9.7 0.00 0.00 0.00 82 1015.9
20260906002009 22 70 1.6 9.7 0.00 0.00 0.00 83 1015.9
20260906001508 22 43 1.6 9.7 0.00 0.00 0.00 83 1015.8
20260906001008 22 64 1.6 9.7 0.00 0.00 0.00 83 1015.8
20260906000507 22 66 3.2 8.0 0.00 0.00 0.00 83 1015.8
20260905235507 22 42 3.2 9.7 0.00 0.00 0.00 83 1015.8
20260905235008 22 65 3.2 9.7 0.00 0.00 0.00 82 1015.9
20260905234509 23 53 3.2 14.5 0.00 0.00 0.00 82 1015.9
20260905234008 23 33 3.2 14.5 0.00 0.00 0.00 81 1016.0
20260905233507 23 70 1.6 8.0 0.00 0.00 0.00 81 1015.8
20260905233008 23 62 3.2 9.7 0.00 0.00 0.00 80 1015.8
20260905232506 23 51 3.2 12.9 0.00 0.00 0.00 79 1015.7
20260905232008 24 16 1.6 12.9 0.00 0.00 0.00 79 1015.7
20260905231507 24 10 1.6 9.7 0.00 0.00 0.00 78 1015.5
20260905230506 25 317 1.6 9.7 0.00 0.00 0.00 77 1015.4
20260905225507 25 41 1.6 8.0 0.00 0.00 0.00 76 1015.2
20260905225007 25 42 1.6 8.0 0.00 0.00 0.00 75 1015.2
20260905224007 26 35 1.6 6.4 0.00 0.00 0.00 73 1015.2
20260905223507 26 53 1.6 14.5 0.00 0.00 0.00 72 1015.1
20260905223008 27 11 1.6 14.5 0.00 0.00 0.00 71 1015.1
20260905222507 27 67 1.6 6.4 0.00 0.00 0.00 72 1015.0
20260905222010 27 57 1.6 8.0 0.00 0.00 0.00 72 1014.9
20260905221007 27 13 1.6 8.0 0.00 0.00 0.00 72 1015.0
20260905220023 27 24 1.6 6.4 0.00 0.00 0.00 72 1015.2
20260905215507 27 69 1.6 6.4 0.00 0.00 0.00 70 1015.0
20260905215007 27 55 1.6 8.0 0.00 0.00 0.00 70 1015.0
20260905214507 27 61 1.6 8.0 0.00 0.00 0.00 70 1014.9
20260905214009 27 273 1.6 6.4 0.00 0.00 0.00 70 1014.9
20260905213507 27 53 0.0 6.4 0.00 0.00 0.00 70 1014.9
20260905213008 27 288 0.0 6.4 0.00 0.00 0.00 72 1014.9
20260905212009 27 42 1.6 6.4 0.00 0.00 0.00 72 1014.8
20260905211507 27 59 1.6 8.0 0.00 0.00 0.00 73 1014.9
20260905211007 27 24 1.6 8.0 0.00 0.00 0.00 73 1014.8
20260905210507 27 59 1.6 6.4 0.00 0.00 0.00 72 1014.9
20260905210010 27 68 1.6 4.8 0.00 0.00 0.00 74 1014.9
20260905205008 26 49 0.0 4.8 0.00 0.00 0.00 76 1015.1
20260905204506 26 49 1.6 8.0 0.00 0.00 0.00 76 1015.1
20260905204007 26 46 1.6 8.0 0.00 0.00 0.00 77 1015.3
20260905203507 25 295 0.0 6.4 0.00 0.00 0.00 78 1015.0
20260905202507 25 13 1.6 6.4 0.00 0.00 0.00 79 1015.2
20260905201507 25 38 1.6 9.7 0.00 0.00 0.00 79 1015.2
20260905195008 25 34 1.6 8.0 0.00 0.00 0.00 79 1015.3
20260905194507 25 65 3.2 12.9 0.00 0.00 0.00 79 1015.3
20260905194008 25 27 1.6 12.9 0.00 0.00 0.00 79 1015.3
20260905193506 25 10 1.6 8.0 0.00 0.00 0.00 79 1015.3
20260905193008 25 53 1.6 8.0 0.00 0.00 0.00 79 1015.3
20260905192506 25 32 1.6 9.7 0.00 0.00 0.00 79 1015.5
20260905192008 25 37 1.6 9.7 0.00 0.00 0.00 79 1015.4
20260905191507 25 37 1.6 6.4 0.00 0.00 0.00 79 1015.5
20260905191009 25 37 1.6 9.7 0.00 0.00 0.00 79 1015.4
20260905190506 25 355 3.2 9.7 0.00 0.00 0.00 79 1015.5
20260905190012 25 23 1.6 8.0 0.00 0.00 0.00 79 1015.6
20260905185007 25 12 1.6 9.7 0.00 0.00 0.00 79 1015.5
20260905184008 26 32 1.6 9.7 0.00 0.00 0.00 78 1015.6
20260905183506 26 22 1.6 8.0 0.00 0.00 0.00 79 1015.5
20260905183007 26 50 1.6 8.0 0.00 0.00 0.00 78 1015.6
20260905182506 26 52 1.6 8.0 0.00 0.00 0.00 78 1015.6
20260905182008 26 67 3.2 9.7 0.00 0.00 0.00 78 1015.6
20260905181507 26 51 3.2 9.7 0.00 0.00 0.00 77 1015.6
20260905181007 26 278 1.6 8.0 0.00 0.00 0.00 78 1015.5
20260905180507 26 45 1.6 6.4 0.00 0.00 0.00 78 1015.5
20260905180019 26 56 3.2 8.0 0.00 0.00 0.00 77 1015.5
20260905175508 26 26 3.2 8.0 0.00 0.00 0.00 77 1015.5
20260905174007 26 35 1.6 12.9 0.00 0.00 0.00 77 1015.3
20260905173506 26 19 3.2 12.9 0.00 0.00 0.00 77 1015.4
20260905172507 26 24 1.6 6.4 0.00 0.00 0.00 77 1015.4
20260905171507 26 55 1.6 6.4 0.00 0.00 0.00 78 1015.3
20260905171007 26 37 1.6 9.7 0.00 0.00 0.00 78 1015.3
20260905170009 26 31 1.6 9.7 0.00 0.00 0.00 78 1015.6
20260905165506 26 275 1.6 9.7 0.00 0.00 0.00 78 1015.6
20260905165006 26 299 3.2 9.7 0.00 0.00 0.00 79 1015.6
20260905164506 26 13 3.2 9.7 0.00 0.00 0.00 78 1015.7
20260905164007 26 19 3.2 14.5 0.00 0.00 0.00 78 1015.7
20260905163506 26 57 1.6 14.5 0.00 0.00 0.00 78 1015.7
20260905162507 26 355 1.6 6.4 0.00 0.00 0.00 78 1015.6
20260905162008 26 71 1.6 6.4 0.00 0.00 0.00 79 1015.5
20260905161506 26 55 1.6 6.4 0.00 0.00 0.00 78 1015.5
20260905161008 26 65 1.6 9.7 0.00 0.00 0.00 78 1015.5
20260905160509 26 80 1.6 9.7 0.00 0.00 0.00 79 1015.5
20260905155507 26 49 0.0 3.2 0.00 0.00 0.00 80 1015.5
20260905155007 26 62 0.0 3.2 0.00 0.00 0.00 81 1015.5
20260905154007 25 53 1.6 6.4 0.00 0.00 0.00 81 1015.3
20260905153507 25 74 1.6 6.4 0.00 0.00 0.00 80 1015.3
20260905152506 25 46 1.6 6.4 0.00 0.00 0.00 81 1015.2
20260905152007 25 56 0.0 4.8 0.00 0.00 0.00 82 1015.2
20260905151506 25 61 1.6 6.4 0.00 0.00 0.00 82 1015.2
20260905151007 25 63 1.6 8.0 0.00 0.00 0.00 83 1015.1
20260905150509 25 67 1.6 8.0 0.00 0.00 0.00 82 1015.0
20260905150011 25 60 0.0 4.8 0.00 0.00 0.00 82 1015.0
20260905145507 25 18 1.6 4.8 0.00 0.00 0.00 83 1015.0
20260905145007 25 56 1.6 6.4 0.00 0.00 0.00 83 1014.9
20260905144507 25 42 1.6 6.4 0.00 0.00 0.00 83 1014.9
20260905144007 25 57 0.0 4.8 0.00 0.00 0.00 83 1014.9
20260905143506 25 42 1.6 9.7 0.00 0.00 0.00 83 1014.9
20260905143008 25 5 1.6 9.7 0.00 0.00 0.00 84 1015.0
20260905142507 25 34 1.6 9.7 0.00 0.00 0.00 84 1014.9
20260905142007 24 44 1.6 9.7 0.00 0.00 0.00 84 1014.9
20260905141007 24 43 1.6 8.0 0.00 0.00 0.00 86 1014.8
20260905135507 23 49 1.6 8.0 0.00 0.00 0.00 88 1014.5
20260905135008 23 36 1.6 8.0 0.00 0.00 0.00 89 1014.5
20260905134507 23 34 1.6 8.0 0.00 0.00 0.00 89 1014.7
20260905134010 23 26 0.0 4.8 0.00 0.00 0.00 90 1014.7
20260905133507 23 21 1.6 14.5 0.00 0.00 0.00 89 1014.8
20260905133008 23 19 1.6 14.5 0.00 0.00 0.00 89 1015.0
20260905132505 23 55 1.6 4.8 0.00 0.00 0.00 90 1015.1
20260905132006 23 59 1.6 6.4 0.00 0.00 0.00 90 1015.0
20260905131506 23 26 1.6 6.4 0.00 0.00 0.00 90 1015.0
20260905131006 23 28 1.6 6.4 0.00 0.00 0.00 90 1014.8
20260905130506 23 69 1.6 4.8 0.00 0.00 0.00 90 1014.6
20260905130010 23 45 1.6 4.8 0.00 0.00 0.00 90 1014.4
20260905125505 23 59 0.0 6.4 0.00 0.00 0.00 90 1014.4
20260905125006 23 40 1.6 6.4 0.00 0.00 0.00 90 1014.1
20260905124506 23 15 1.6 4.8 0.00 0.00 0.00 90 1014.1
20260905124007 23 56 0.0 3.2 0.00 0.00 0.00 90 1014.1
20260905123506 23 53 0.0 3.2 0.00 0.00 0.00 90 1014.0
20260905123006 23 54 0.0 3.2 0.00 0.00 0.00 90 1013.9
20260905122505 23 51 0.0 3.2 0.00 0.00 0.00 90 1014.0
20260905122006 23 51 0.0 3.2 0.00 0.00 0.00 90 1013.8